Date,TemperatureHighF,TemperatureAvgF,TemperatureLowF,DewpointHighF,DewpointAvgF,DewpointLowF,HumidityHigh,HumidityAvg,HumidityLow,PressureMaxIn,PressureMinIn,WindSpeedMaxMPH,WindSpeedAvgMPH,GustSpeedMaxMPH,PrecipitationSumIn
2013-1-1,53.4,47.6,43.7,43.5,37.8,32.9,89,70,48,30.26,30.19,8,2,13,0.00
2013-1-2,58.2,47.5,39.3,41.2,37.8,33.8,93,71,43,30.23,30.11,6,1,10,0.00
2013-1-3,55.5,46.7,39.4,42.3,39.5,36.3,93,77,58,30.25,30.15,6,0,9,0.00
2013-1-4,58.4,49.4,41.9,42.7,39.7,37.0,89,71,45,30.27,30.16,4,1,8,0.00
2013-1-5,54.2,48.7,42.8,49.4,45.2,39.3,96,88,78,30.25,30.04,12,1,18,0.27
2013-1-6,52.3,48.5,45.2,48.0,44.1,42.4,94,85,70,30.17,30.03,11,1,16,0.11
2013-1-7,59.4,50.2,42.5,51.2,46.3,40.9,97,87,70,30.25,30.14,6,1,9,0.01
2013-1-8,60.9,52.0,46.2,48.5,46.3,44.1,94,82,61,30.23,30.11,4,0,6,0.00
2013-1-9,54.1,49.5,46.1,50.8,44.4,37.6,93,83,70,30.14,29.99,16,2,23,0.01
2013-1-10,51.7,46.7,43.7,38.3,35.5,32.0,76,65,49,30.18,30.06,14,3,18,0.00
2013-1-11,51.4,46.7,41.3,42.2,37.5,30.5,83,71,54,30.24,30.11,16,3,21,0.00
2013-1-12,52.4,45.9,38.8,39.8,33.3,22.9,87,64,33,30.25,30.13,6,1,10,0.00
2013-1-13,51.2,44.5,37.7,36.6,27.5,15.5,72,52,29,30.25,30.16,9,1,15,0.00
2013-1-14,51.8,45.7,39.0,38.0,23.1,15.6,76,43,27,30.39,30.21,8,2,16,0.00
2013-1-15,54.6,46.1,38.0,38.5,33.3,27.0,89,63,35,30.46,30.38,7,1,12,0.00
2013-1-16,59.3,48.0,39.2,40.4,37.2,34.4,89,68,42,30.42,30.24,4,0,7,0.00
2013-1-17,64.0,50.7,40.1,41.2,37.1,33.1,84,62,33,30.24,30.12,6,1,10,0.00
2013-1-18,64.6,52.2,42.0,45.3,38.2,32.6,90,62,31,30.21,30.11,4,1,10,0.00
2013-1-19,64.5,52.3,41.0,45.5,37.9,31.9,87,61,34,30.23,30.13,5,1,7,0.00
2013-1-20,64.5,52.1,41.4,45.1,37.2,31.3,86,60,29,30.21,30.11,5,0,7,0.00
2013-1-21,64.2,51.7,40.4,44.0,39.2,35.6,88,64,39,30.16,30.06,5,0,9,0.00
2013-1-22,61.4,52.5,43.1,45.8,42.0,38.9,91,69,47,30.09,29.98,5,0,9,0.00
2013-1-23,55.6,52.7,50.9,50.7,47.4,45.1,93,82,69,30.07,29.93,6,0,12,0.09
2013-1-24,60.3,54.8,51.3,52.6,50.7,49.2,93,86,74,30.17,30.05,5,1,9,0.00
2013-1-25,64.5,57.5,52.6,55.1,52.4,50.2,94,84,69,30.17,30.02,8,1,12,0.01
2013-1-26,54.9,52.2,49.1,51.1,45.8,42.4,94,79,64,30.07,29.99,16,6,23,0.00
2013-1-27,55.5,49.7,45.1,42.3,39.4,36.1,79,68,51,30.17,30.06,10,4,16,0.00
2013-1-28,57.2,50.6,46.2,44.6,41.5,36.8,85,71,57,30.28,30.14,12,3,17,0.00
2013-1-29,59.1,51.2,46.1,47.7,43.6,40.0,87,76,56,30.34,30.25,9,1,14,0.00
2013-1-30,68.6,54.2,44.9,49.8,44.9,41.6,93,73,42,30.32,30.24,7,1,12,0.00
2013-1-31,64.5,54.2,44.9,48.4,45.5,41.8,91,74,53,30.27,30.16,5,1,7,0.00
2013-2-1,66.5,55.1,45.0,49.9,46.2,42.3,94,74,48,30.21,30.09,6,1,9,0.00
2013-2-2,59.4,51.7,48.5,50.1,47.6,44.7,94,86,71,30.28,30.20,9,2,14,0.00
2013-2-3,58.6,51.5,47.7,47.9,44.9,41.6,92,79,61,30.24,30.13,10,2,13,0.00
2013-2-4,56.8,50.0,47.3,49.5,46.5,44.1,94,88,75,30.17,30.05,8,2,12,0.00
2013-2-5,54.6,50.6,47.9,48.6,45.4,41.9,90,82,76,30.14,30.06,16,5,23,0.00
2013-2-6,57.1,49.9,42.3,47.9,44.0,39.3,95,81,56,30.18,30.11,13,3,18,0.00
2013-2-7,53.4,48.9,44.0,47.3,43.6,39.5,94,83,60,30.16,29.98,13,3,18,0.22
2013-2-8,52.4,47.8,42.4,43.4,39.8,30.5,93,75,45,30.01,29.92,13,3,18,0.13
2013-2-9,59.7,50.6,42.2,43.3,33.9,22.5,78,55,27,30.07,29.97,9,1,13,0.00
2013-2-10,60.4,49.9,40.7,44.5,38.9,33.0,91,68,40,30.11,30.00,7,1,12,0.00
2013-2-11,63.7,52.2,42.5,47.2,38.4,26.9,90,64,28,30.22,30.05,12,2,20,0.00
2013-2-12,62.7,51.0,43.3,48.2,44.6,41.1,95,80,49,30.34,30.22,8,1,10,0.00
2013-2-13,62.6,51.1,44.0,50.0,45.8,42.1,95,83,54,30.33,30.20,11,2,16,0.01
2013-2-14,69.8,56.1,45.6,49.4,45.8,43.1,95,71,40,30.23,30.13,6,1,10,0.00
2013-2-15,72.3,59.4,47.6,48.6,43.8,40.5,87,60,33,30.25,30.18,5,1,7,0.00
2013-2-16,68.9,57.2,49.7,49.8,46.8,43.8,90,70,46,30.21,30.04,11,2,17,0.00
2013-2-17,61.6,52.8,46.6,49.5,45.6,41.8,92,78,55,30.05,29.96,12,3,17,0.00
2013-2-18,52.2,49.2,47.5,45.6,42.1,37.6,90,77,66,30.04,29.95,13,6,21,0.00
2013-2-19,49.0,46.2,42.7,45.4,39.5,33.4,91,78,63,29.96,29.74,17,5,26,0.43
2013-2-20,56.7,48.6,39.8,43.6,38.9,33.8,90,70,49,30.05,29.83,14,2,17,0.00
2013-2-21,57.4,50.2,44.3,44.2,39.2,32.4,86,67,40,30.16,30.04,10,3,16,0.00
2013-2-22,60.6,50.6,42.7,46.8,43.2,37.0,95,77,44,30.24,30.15,15,3,23,0.00
2013-2-23,56.7,51.8,47.4,48.4,40.1,32.1,93,66,44,30.25,30.15,16,5,21,0.01
2013-2-24,61.5,52.8,48.1,44.4,32.9,22.8,87,49,26,30.25,30.15,13,4,18,0.00
2013-2-25,59.8,51.9,45.0,48.2,44.5,41.2,93,76,59,30.26,30.16,9,2,14,0.00
2013-2-26,62.7,52.2,44.0,44.6,37.5,25.0,87,62,25,30.20,30.12,11,2,16,0.00
2013-2-27,66.5,53.2,43.7,49.0,44.3,36.7,92,74,37,30.35,30.19,11,2,20,0.00
2013-2-28,63.4,54.3,49.1,53.0,49.6,46.8,94,85,68,30.43,30.35,12,3,17,0.00
2013-3-1,71.7,56.0,47.0,53.8,49.0,45.4,98,79,47,30.42,30.21,9,1,14,0.00
2013-3-2,70.3,57.2,51.5,53.8,50.2,48.4,91,78,52,30.22,30.06,10,2,18,0.00
2013-3-3,59.2,52.2,48.8,50.6,47.9,45.2,92,85,69,30.09,30.03,14,5,24,0.00
2013-3-4,56.6,49.4,46.8,46.3,44.2,41.9,91,83,64,30.14,30.05,14,4,18,0.00
2013-3-5,57.6,51.2,45.1,47.6,43.2,40.6,90,75,61,30.06,29.83,19,6,28,0.09
2013-3-6,56.4,51.8,46.7,49.2,44.6,41.6,91,77,59,30.06,29.83,16,6,30,0.13
2013-3-7,57.2,49.4,44.6,46.6,43.2,36.6,94,80,48,29.98,29.84,12,2,17,0.04
2013-3-8,54.9,50.2,46.3,46.2,44.3,42.4,90,80,68,30.03,29.82,20,7,32,0.00
2013-3-9,63.2,52.9,44.2,47.4,43.7,40.6,89,72,48,30.29,30.03,12,2,17,0.00
2013-3-10,67.8,55.1,44.7,50.9,45.1,39.0,92,72,38,30.34,30.24,11,2,16,0.00
2013-3-11,70.3,54.9,45.2,51.3,46.1,39.1,95,76,36,30.25,30.09,13,2,18,0.00
2013-3-12,68.5,54.8,47.2,53.3,48.9,45.8,96,82,55,30.15,30.05,9,3,12,0.00
2013-3-13,75.8,56.2,46.4,55.3,49.7,44.8,97,81,44,30.15,30.05,10,2,13,0.00
2013-3-14,64.3,53.8,47.7,52.2,48.4,45.8,95,83,59,30.16,30.07,13,4,18,0.00
2013-3-15,70.7,55.2,48.4,53.1,48.9,45.6,93,81,52,30.12,30.03,15,3,20,0.00
2013-3-16,63.7,54.4,48.5,52.0,48.0,44.9,96,80,55,30.11,30.01,17,4,23,0.00
2013-3-17,63.7,54.1,47.9,46.5,44.6,38.9,86,71,42,30.14,30.04,17,3,21,0.00
2013-3-18,65.7,53.5,47.3,48.2,46.1,44.0,92,77,52,30.12,30.02,11,3,17,0.00
2013-3-19,65.3,54.1,48.7,50.3,45.8,41.4,92,75,45,30.13,30.04,11,2,16,0.06
2013-3-20,61.1,54.4,50.5,55.5,50.8,46.0,95,88,69,30.13,30.05,11,3,20,0.06
2013-3-21,59.6,52.0,45.1,48.6,43.6,40.7,93,74,56,30.13,30.00,13,4,20,0.00
2013-3-22,62.3,53.3,44.3,45.2,38.8,23.9,88,62,24,30.11,30.01,16,3,18,0.00
2013-3-23,66.8,54.2,45.0,44.6,39.6,27.3,84,62,26,30.12,30.03,12,2,16,0.00
2013-3-24,64.7,53.1,47.4,48.4,46.0,44.1,90,78,53,30.08,29.96,15,5,20,0.00
2013-3-25,54.7,49.9,46.8,46.3,44.4,43.4,89,82,69,30.03,29.91,15,6,25,0.00
2013-3-26,60.6,52.9,48.6,48.7,45.8,43.9,86,77,62,30.00,29.93,11,4,15,0.00
2013-3-27,62.0,55.6,50.4,54.4,50.9,47.1,92,84,72,30.00,29.93,12,4,20,0.00
2013-3-28,65.9,57.9,54.3,55.0,52.9,51.2,92,84,63,30.07,29.98,10,3,16,0.00
2013-3-29,75.1,58.3,50.8,56.0,51.6,48.7,96,80,47,30.07,30.00,14,2,20,0.00
2013-3-30,68.2,57.6,51.8,54.8,52.2,49.3,95,83,53,30.06,29.95,14,3,20,0.07
2013-3-31,65.5,58.5,54.1,57.4,53.6,51.2,94,84,65,30.05,29.97,13,3,20,0.40
2013-4-1,62.4,57.0,53.6,55.7,52.7,48.8,96,86,67,30.14,30.03,12,3,18,0.28
2013-4-2,62.2,54.3,50.0,53.2,50.1,48.1,94,86,70,30.18,30.08,14,4,22,0.00
2013-4-3,76.3,54.8,49.0,54.8,49.5,44.5,95,84,35,30.13,29.99,16,4,21,0.00
2013-4-4,64.4,56.9,50.4,56.9,53.8,48.5,97,90,75,30.11,29.98,13,5,22,0.43
2013-4-5,62.2,57.0,53.0,55.6,53.1,50.9,96,87,70,30.18,30.10,12,4,18,0.01
2013-4-6,60.7,55.7,53.0,55.7,52.8,50.0,96,90,78,30.19,30.12,12,3,20,0.01
2013-4-7,60.4,55.7,52.7,54.7,51.2,46.9,94,85,71,30.16,29.85,17,5,25,0.09
2013-4-8,61.9,54.6,48.5,48.2,41.6,30.0,83,63,32,30.01,29.80,22,8,32,0.05
2013-4-9,73.0,63.6,56.3,48.9,39.7,31.6,58,42,26,30.09,30.00,13,4,21,0.00
2013-4-10,78.4,63.5,52.5,53.0,49.3,44.2,89,62,36,30.16,30.02,17,4,23,0.00
2013-4-11,69.3,56.8,50.0,50.0,47.6,43.4,88,72,42,30.05,29.84,16,5,22,0.00
2013-4-12,65.3,54.1,48.3,50.0,47.1,45.1,92,78,57,29.91,29.83,16,5,21,0.00
2013-4-13,62.1,54.2,48.8,49.7,45.4,41.9,87,73,60,29.89,29.82,18,5,23,0.00
2013-4-14,62.1,52.6,46.4,46.2,42.2,39.6,91,69,47,29.93,29.86,22,6,29,0.00
2013-4-15,55.4,49.8,46.3,48.4,41.2,37.1,94,73,56,29.96,29.85,26,8,39,0.00
2013-4-16,62.2,53.5,44.1,43.6,38.3,30.9,78,58,40,30.14,29.94,16,4,21,0.00
2013-4-17,65.2,59.2,52.1,44.5,35.7,26.4,74,43,24,30.26,30.14,14,6,20,0.00
2013-4-18,71.7,58.5,48.8,48.7,43.1,35.2,81,60,28,30.25,30.17,16,3,18,0.00
2013-4-19,71.7,59.4,49.1,52.3,48.6,45.6,89,69,46,30.22,30.04,14,3,20,0.00
2013-4-20,72.0,58.9,50.3,51.6,46.9,39.6,88,67,32,30.09,29.98,13,4,18,0.00
2013-4-21,80.0,63.4,49.8,53.0,47.2,42.5,89,60,29,30.03,29.91,10,2,14,0.00
2013-4-22,84.2,66.2,54.5,54.7,48.3,39.9,78,56,21,29.95,29.83,11,2,18,0.00
2013-4-23,73.9,59.8,49.9,50.0,41.9,23.5,89,59,17,29.92,29.84,14,4,22,0.00
2013-4-24,58.9,53.0,47.9,50.8,48.3,45.4,93,84,73,29.94,29.83,17,6,33,0.00
2013-4-25,60.9,55.4,52.7,51.2,49.6,47.4,90,81,69,30.12,29.94,12,4,21,0.00
2013-4-26,60.9,53.8,50.2,50.1,48.0,46.6,89,81,67,30.23,30.11,14,4,18,0.00
2013-4-27,63.2,52.8,48.5,51.6,48.2,46.4,95,85,63,30.22,30.08,16,5,21,0.00
2013-4-28,76.3,61.1,49.7,53.9,49.8,46.9,91,69,39,30.08,29.86,11,3,16,0.00
2013-4-29,80.7,64.6,54.7,55.9,51.3,48.1,83,64,40,29.88,29.75,15,4,21,0.00
2013-4-30,71.3,60.7,51.2,50.9,47.6,36.5,84,64,36,29.84,29.78,16,4,20,0.00
2013-5-1,77.0,68.3,57.5,50.0,37.8,22.7,70,36,15,30.07,29.83,9,3,15,0.00
2013-5-2,90.1,70.8,54.3,54.7,40.3,28.9,82,40,12,30.13,30.05,12,2,16,0.00
2013-5-3,85.3,69.0,56.1,50.9,42.7,29.0,75,43,14,30.06,29.78,14,2,20,0.00
2013-5-4,75.6,62.2,54.6,53.5,50.3,45.8,84,67,37,29.78,29.56,14,4,24,0.00
2013-5-5,67.3,61.0,55.6,52.6,49.9,47.6,77,67,55,29.79,29.59,15,4,23,0.02
2013-5-6,69.9,62.7,58.3,53.7,51.8,49.5,82,68,49,29.95,29.79,14,3,20,0.00
2013-5-7,68.2,60.6,54.2,55.4,53.3,51.6,93,77,59,30.04,29.93,14,4,20,0.00
2013-5-8,59.4,54.7,52.6,52.1,50.5,48.7,93,86,74,30.13,30.03,12,4,21,0.00
2013-5-9,59.5,54.6,52.0,50.9,49.3,48.2,88,83,72,30.18,30.09,16,6,23,0.00
2013-5-10,59.2,53.8,50.9,52.7,50.4,48.4,95,89,78,30.19,30.11,16,5,23,0.00
2013-5-11,71.3,57.7,50.5,56.7,51.6,48.8,95,82,55,30.16,30.04,16,4,22,0.00
2013-5-12,67.8,58.8,53.2,56.9,53.4,50.3,94,83,63,30.14,30.02,14,5,20,0.00
2013-5-13,64.0,58.6,52.9,56.0,53.0,50.3,95,82,69,30.09,29.94,16,6,23,0.00
2013-5-14,61.4,56.6,52.2,53.6,49.8,47.0,91,78,67,30.00,29.92,19,6,26,0.00
2013-5-15,59.7,55.1,52.8,51.8,48.7,47.1,90,79,68,30.05,29.98,21,4,28,0.00
2013-5-16,62.7,56.3,53.6,56.1,51.8,50.1,90,85,69,30.03,29.96,18,5,24,0.00
2013-5-17,53.6,52.6,51.9,50.4,49.3,48.3,92,89,87,29.99,29.96,12,6,17,0.00
2013-5-18,67.0,62.4,54.4,53.3,50.9,47.3,83,66,56,30.12,30.06,14,5,20,0.00
2013-5-19,74.9,62.1,52.2,54.5,49.0,44.3,87,65,36,30.11,29.96,15,4,23,0.00
2013-5-20,82.5,63.1,52.3,57.1,50.0,43.0,86,66,27,29.99,29.92,16,4,24,0.00
2013-5-21,61.7,55.8,51.5,51.0,47.1,41.1,88,73,61,29.99,29.90,24,9,32,0.00
2013-5-22,60.2,54.3,49.5,43.9,38.8,29.6,76,57,35,30.02,29.89,17,6,24,0.00
2013-5-23,63.2,55.1,49.0,46.3,43.9,41.9,81,67,50,30.00,29.91,17,5,22,0.00
2013-5-24,62.6,54.7,48.5,47.7,45.6,43.4,87,73,51,30.00,29.92,18,6,26,0.00
2013-5-25,60.4,54.1,48.7,49.6,47.3,45.0,91,78,62,30.03,29.95,16,6,33,0.00
2013-5-26,62.0,56.6,52.1,53.9,52.0,49.4,94,85,72,30.13,30.03,18,9,28,0.00
2013-5-27,61.7,56.6,53.0,55.9,53.5,49.9,95,89,79,30.12,29.98,18,6,26,0.04
2013-5-28,64.7,58.6,54.8,57.4,54.1,51.2,96,85,67,29.99,29.92,16,5,24,0.00
2013-5-29,64.7,58.7,54.2,55.1,51.8,48.1,89,78,63,29.97,29.89,20,6,25,0.00
2013-5-30,68.3,58.6,50.5,50.7,48.6,46.6,89,70,52,29.98,29.92,15,4,21,0.00
2013-5-31,78.7,62.0,51.3,52.7,49.2,46.4,87,65,36,30.00,29.90,13,5,20,0.00
2013-6-1,77.2,63.0,52.1,54.6,50.0,47.2,85,65,43,29.93,29.76,13,5,22,0.00
2013-6-2,63.1,55.9,51.9,52.3,50.2,48.8,91,82,67,29.78,29.68,21,9,29,0.00
2013-6-3,66.8,57.4,51.8,54.0,51.3,48.8,91,81,62,29.85,29.71,21,5,32,0.00
2013-6-4,62.9,56.8,53.7,54.0,51.9,50.8,91,84,72,29.96,29.85,21,7,28,0.00
2013-6-5,61.1,55.7,53.2,52.5,50.8,49.5,91,84,72,30.00,29.93,14,6,23,0.00
2013-6-6,62.9,56.0,51.8,53.4,51.2,49.7,93,85,68,29.95,29.86,17,6,23,0.00
2013-6-7,77.5,62.3,52.5,58.4,53.8,50.5,94,76,50,29.89,29.71,11,4,16,0.00
2013-6-8,71.5,62.2,55.1,56.7,54.2,51.0,87,75,58,29.79,29.71,18,4,27,0.00
2013-6-9,63.7,58.9,56.6,56.9,55.0,54.1,92,87,77,29.87,29.78,22,8,31,0.00
2013-6-10,68.2,60.1,55.8,55.0,53.4,52.0,91,79,62,29.94,29.80,16,7,24,0.00
2013-6-11,68.2,59.2,54.7,55.7,52.5,50.3,92,79,63,29.98,29.88,12,4,15,0.00
2013-6-12,67.0,59.2,52.4,52.6,50.4,48.3,89,74,57,29.98,29.90,18,5,24,0.00
2013-6-13,72.8,60.4,50.8,52.1,49.3,46.5,87,68,46,30.09,29.98,15,4,20,0.00
2013-6-14,74.3,56.7,52.4,55.5,50.2,48.6,89,80,48,29.98,29.83,17,4,22,0.00
2013-6-15,57.8,53.5,51.2,51.8,49.9,48.7,92,88,79,30.00,29.83,19,8,26,0.00
2013-6-16,66.8,57.2,51.5,54.6,51.1,49.0,92,81,64,30.08,29.98,14,6,26,0.00
2013-6-17,64.8,58.2,51.6,56.9,53.4,49.8,95,85,74,30.08,30.01,22,8,31,0.00
2013-6-18,62.0,57.2,54.4,54.0,52.4,51.0,94,84,71,30.04,29.98,24,11,33,0.00
2013-6-19,66.3,59.3,53.7,51.8,49.9,47.3,89,72,56,30.05,29.98,18,7,28,0.00
2013-6-20,68.4,59.7,52.1,52.3,49.8,47.5,88,71,55,30.00,29.93,16,6,23,0.00
2013-6-21,70.7,59.7,51.4,54.3,51.2,48.8,92,75,54,29.97,29.91,15,6,23,0.00
2013-6-22,72.5,61.2,52.6,55.1,51.9,48.4,93,73,48,29.93,29.83,14,5,25,0.00
2013-6-23,63.9,58.6,54.0,61.2,56.5,52.4,96,93,87,29.88,29.81,16,6,26,0.00
2013-6-24,62.0,58.4,55.0,58.9,55.9,53.3,95,92,85,29.89,29.78,10,3,14,0.02
2013-6-25,73.5,65.9,61.8,65.5,62.0,57.5,95,87,75,29.97,29.86,14,4,20,0.08
2013-6-26,76.3,68.7,61.7,65.2,62.4,60.3,96,81,60,30.04,29.95,12,3,15,0.01
2013-6-28,74.3,67.2,63.1,59.0,57.1,55.5,77,70,59,29.91,29.88,14,5,22,0.00
2013-6-29,83.2,69.2,59.6,59.6,56.8,54.3,83,66,44,29.91,29.78,16,5,22,0.00
2013-6-30,72.0,63.5,57.6,58.9,56.3,54.3,90,78,63,29.84,29.76,16,7,23,0.00
2013-7-1,82.8,64.0,55.4,61.6,56.2,53.6,94,78,48,29.84,29.79,16,5,25,0.00
2013-7-2,72.1,61.3,57.6,60.6,56.8,54.8,94,85,65,29.92,29.81,17,7,30,0.00
2013-7-3,81.3,65.0,57.3,61.5,57.9,55.6,95,80,48,29.91,29.76,17,5,22,0.00
2013-7-4,74.5,66.1,58.3,60.3,56.7,50.8,88,73,54,29.77,29.67,18,5,25,0.00
2013-7-5,62.9,57.8,54.4,54.5,52.5,51.4,90,83,72,29.78,29.70,16,8,23,0.00
2013-7-6,63.8,57.9,54.8,54.7,52.8,51.5,90,83,72,29.80,29.74,17,9,26,0.00
2013-7-7,65.1,59.1,55.4,55.8,53.8,52.1,92,83,71,29.86,29.78,15,6,23,0.00
2013-7-8,65.4,59.4,55.2,56.3,54.1,52.2,94,83,69,29.97,29.85,14,6,20,0.00
2013-7-9,74.1,61.1,53.0,58.4,54.4,51.6,95,80,54,30.02,29.91,15,5,20,0.00
2013-7-10,63.3,56.9,53.6,56.3,53.5,51.5,95,88,76,29.98,29.90,15,7,22,0.00
2013-7-11,60.7,55.7,52.3,54.0,52.1,50.3,94,88,77,29.95,29.89,18,7,26,0.00
2013-7-12,61.6,57.2,54.1,54.4,52.5,51.0,90,85,76,29.94,29.87,16,8,25,0.00
2013-7-13,67.0,58.6,53.4,55.2,52.9,51.1,94,82,64,29.95,29.89,17,6,25,0.00
2013-7-14,61.8,56.2,53.3,54.9,52.6,51.2,94,88,76,30.00,29.90,16,7,23,0.00
2013-7-15,61.5,55.9,51.9,55.3,52.5,50.2,95,89,77,29.93,29.84,14,6,22,0.00
2013-7-16,65.4,59.4,54.5,57.8,54.5,51.5,93,84,70,30.02,29.86,13,5,17,0.00
2013-7-17,65.8,59.5,55.2,56.9,54.7,52.6,93,84,72,30.09,30.01,15,6,22,0.00
2013-7-18,63.4,57.4,54.1,55.9,53.7,52.2,95,88,75,30.06,29.94,19,6,27,0.00
2013-7-19,64.2,57.2,53.9,56.0,53.3,51.6,94,87,72,29.95,29.83,18,7,26,0.00
2013-7-20,64.1,56.1,52.6,55.3,52.4,50.9,95,88,72,29.86,29.75,16,8,24,0.00
2013-7-21,62.6,56.3,53.0,55.3,53.0,51.3,95,89,76,29.87,29.77,18,8,25,0.00
2013-7-22,65.9,59.4,54.8,58.7,56.0,53.1,95,89,76,29.95,29.87,16,6,23,0.00
2013-7-23,70.7,61.3,56.4,60.2,56.5,54.4,95,85,68,30.00,29.93,14,4,20,0.00
2013-7-24,71.1,61.6,55.3,58.3,55.8,52.7,95,82,62,29.98,29.89,16,5,21,0.00
2013-7-25,64.5,57.2,53.4,56.4,53.8,51.8,96,89,74,30.02,29.92,14,5,22,0.00
2013-7-26,64.3,57.7,54.3,57.7,54.7,52.9,95,90,77,30.09,30.00,16,6,24,0.00
2013-7-27,62.8,57.4,54.7,56.8,54.6,53.1,95,91,80,30.03,29.86,14,6,22,0.00
2013-7-28,61.3,56.8,55.0,55.3,53.9,52.7,95,90,79,29.88,29.81,16,8,24,0.00
2013-7-29,64.4,58.7,55.2,56.1,53.9,52.6,92,85,73,30.00,29.84,16,9,27,0.00
2013-7-30,63.3,58.1,54.4,55.8,53.8,52.1,93,86,74,30.09,30.00,14,7,24,0.00
2013-7-31,63.2,57.8,53.7,55.7,53.6,51.7,94,86,74,30.09,29.99,16,6,25,0.00
2013-8-1,64.0,58.7,55.3,56.1,53.8,52.5,91,84,74,30.07,29.95,15,6,28,0.00
2013-8-2,64.1,57.3,52.9,55.3,53.2,51.0,95,86,72,29.98,29.90,16,7,23,0.00
2013-8-3,64.7,57.2,53.0,55.9,53.3,51.1,95,87,72,29.97,29.90,14,7,23,0.00
2013-8-4,61.4,56.4,53.6,54.4,53.1,52.0,95,89,75,30.01,29.95,19,6,27,0.00
2013-8-5,60.9,56.5,53.9,54.6,53.1,51.3,93,89,78,30.02,29.95,15,5,23,0.00
2013-8-6,62.7,58.1,54.3,56.8,54.2,52.0,93,87,77,30.03,29.97,16,5,23,0.00
2013-8-7,67.2,60.6,56.6,57.6,56.2,54.5,95,86,69,30.10,30.02,12,4,18,0.00
2013-8-8,67.0,60.1,55.8,59.2,55.9,53.2,95,87,69,30.03,29.93,14,4,26,0.01
2013-8-9,65.3,58.9,55.0,58.2,55.2,52.4,94,88,74,29.99,29.91,15,5,24,0.01
2013-8-10,65.6,60.1,56.9,57.8,56.2,54.6,94,87,75,30.04,29.98,14,5,22,0.00
2013-8-11,62.9,57.6,55.1,56.9,55.1,54.0,96,92,79,30.02,29.94,14,5,26,0.00
2013-8-12,68.4,59.4,55.4,58.5,55.5,53.2,95,88,69,29.99,29.93,14,5,23,0.00
2013-8-13,78.2,63.5,56.3,59.8,55.8,53.0,94,77,50,29.98,29.90,16,5,23,0.00
2013-8-14,70.0,61.4,55.1,61.4,56.7,53.0,93,85,69,29.97,29.89,13,6,22,0.00
2013-8-15,74.1,65.5,59.6,65.6,61.5,57.9,95,87,74,29.96,29.89,14,5,22,0.00
2013-8-16,70.0,62.6,58.4,61.4,58.9,56.1,95,88,73,29.98,29.93,14,6,22,0.00
2013-8-17,70.3,62.0,57.9,61.1,57.5,55.0,92,86,71,29.98,29.85,13,5,20,0.00
2013-8-18,81.3,66.8,57.1,62.4,58.4,55.3,96,76,48,29.87,29.75,13,4,20,0.00
2013-8-19,74.1,63.3,58.7,59.8,57.6,55.1,92,82,59,29.88,29.77,19,5,25,0.00
2013-8-20,71.3,62.5,57.8,60.7,57.5,55.5,96,85,67,29.88,29.82,17,6,24,0.00
2013-8-21,66.8,61.2,57.5,57.3,55.7,54.7,92,82,69,29.93,29.85,14,6,22,0.00
2013-8-22,67.1,61.5,58.6,56.6,55.3,54.4,89,80,68,29.97,29.88,15,5,21,0.00
2013-8-23,62.8,59.2,56.6,56.5,55.2,53.6,92,87,78,29.92,29.80,15,5,20,0.00
2013-8-24,68.4,61.7,56.7,60.7,57.2,54.6,94,85,71,29.89,29.82,20,6,29,0.00
2013-8-25,72.1,65.0,60.7,64.3,60.8,58.5,96,87,74,29.93,29.87,13,4,17,0.00
2013-8-26,68.9,62.9,58.9,59.5,57.5,56.1,93,83,66,30.00,29.89,13,4,23,0.01
2013-8-27,68.4,61.3,55.6,60.8,57.4,54.2,96,87,73,29.89,29.81,16,6,22,0.00
2013-8-28,72.5,63.3,57.8,63.9,60.3,56.7,98,90,74,29.93,29.84,17,5,23,0.00
2013-8-29,74.1,65.4,60.6,63.7,61.2,58.9,95,87,70,30.04,29.93,12,3,22,0.00
2013-8-30,78.1,66.8,58.9,64.7,60.3,57.3,98,81,59,30.03,29.89,13,4,17,0.00
2013-8-31,67.8,61.3,56.8,60.4,57.7,55.1,95,88,77,29.97,29.88,17,5,27,0.00
2013-9-1,72.2,63.6,57.2,62.5,58.9,54.9,93,85,65,29.94,29.86,15,5,24,0.00
2013-9-2,73.0,66.4,62.1,63.8,61.9,59.7,95,86,72,29.95,29.87,13,4,21,0.00
2013-9-3,70.8,64.5,59.7,61.5,59.4,57.3,94,84,65,29.99,29.91,16,6,26,0.00
2013-9-4,70.7,64.2,59.7,61.1,59.4,57.7,93,85,68,30.02,29.93,18,6,25,0.00
2013-9-5,70.7,64.0,59.3,60.1,58.2,55.9,94,82,67,30.00,29.93,15,5,22,0.00
2013-9-6,83.2,70.1,56.7,61.2,55.1,49.1,92,63,36,29.97,29.80,15,3,21,0.00
2013-9-7,89.8,70.8,57.8,60.8,56.1,52.8,91,62,34,29.85,29.78,12,3,18,0.00
2013-9-8,76.5,63.2,56.6,61.3,56.7,53.7,96,81,54,29.86,29.74,13,4,20,0.00
2013-9-9,76.2,62.9,55.6,60.7,56.9,53.0,95,82,54,29.80,29.70,18,5,26,0.00
2013-9-10,70.7,63.7,57.6,61.1,58.9,56.5,96,85,69,29.88,29.73,20,8,28,0.00
2013-9-11,63.6,62.9,62.5,58.5,58.1,57.6,86,84,83,29.93,29.88,14,5,20,0.00
2013-9-17,67.5,63.6,58.3,56.7,54.8,52.8,83,73,66,29.87,29.81,22,7,33,0.00
2013-9-18,75.5,63.5,55.1,59.8,52.4,47.7,93,70,40,29.90,29.81,14,4,20,0.00
2013-9-19,82.2,64.8,54.4,59.2,53.3,49.8,89,69,36,29.84,29.73,12,2,18,0.00
2013-9-20,71.9,62.6,54.8,63.0,58.3,51.6,95,86,71,29.85,29.76,14,4,18,0.00
2013-9-21,65.9,62.2,58.7,61.3,58.8,55.4,95,89,81,29.89,29.78,13,4,20,0.50
2013-9-22,69.0,61.7,54.8,57.6,55.0,52.9,95,80,59,29.99,29.88,16,4,23,0.00
2013-9-23,78.1,64.9,55.8,61.9,57.1,52.3,89,77,50,30.00,29.91,15,2,23,0.00
2013-9-24,67.2,61.9,58.3,57.7,54.8,50.1,87,78,67,29.98,29.89,26,8,37,0.00
2013-9-25,64.5,59.9,55.9,52.1,49.7,46.7,83,69,59,29.93,29.80,19,7,24,0.00
2013-9-26,70.8,60.8,52.1,49.9,45.6,38.3,77,59,34,29.96,29.82,13,2,17,0.00
2013-9-27,76.3,62.9,53.5,51.6,44.3,33.4,81,54,27,30.08,29.96,16,3,20,0.00
2013-9-28,79.9,62.8,53.0,56.7,51.0,38.5,89,69,23,30.07,29.99,12,2,17,0.00
2013-9-29,72.4,63.8,55.9,62.4,58.7,53.8,95,84,66,30.09,30.03,10,2,15,0.00
2013-9-30,68.8,64.1,59.1,63.6,60.0,45.2,96,87,58,30.05,29.95,10,4,17,0.01
2013-10-1,70.6,61.6,54.8,54.6,51.5,45.5,90,71,51,30.00,29.90,11,2,15,0.00
2013-10-2,69.4,60.0,54.3,54.9,50.2,46.8,86,71,51,29.99,29.91,13,3,21,0.00
2013-10-3,71.0,62.1,51.1,47.6,41.9,34.6,78,51,28,30.06,29.93,13,3,19,0.00
2013-10-4,79.4,70.3,62.1,39.9,34.0,29.0,44,27,16,30.07,29.95,13,4,20,0.00
2013-10-5,86.3,69.8,55.1,46.6,36.3,23.7,68,34,11,30.17,30.07,6,1,9,0.00
2013-10-6,86.2,68.9,55.1,47.4,38.5,29.8,63,36,14,30.09,29.97,9,1,12,0.00
2013-10-7,78.2,64.8,55.6,51.1,43.7,35.8,83,49,23,29.97,29.86,14,3,20,0.00
2013-10-8,69.6,58.3,52.5,54.2,49.9,46.4,92,75,45,29.89,29.70,13,4,22,0.00
2013-10-9,66.3,58.6,51.5,51.4,47.7,41.9,88,69,43,29.74,29.61,11,2,17,0.00
2013-10-10,67.0,56.7,52.3,52.9,49.8,47.6,89,79,60,30.00,29.74,15,4,20,0.00
2013-10-11,60.8,54.1,50.3,52.3,49.4,47.9,92,85,68,30.08,29.97,15,3,22,0.00
2013-10-12,60.2,53.8,49.2,51.5,49.3,47.2,94,85,71,30.00,29.88,16,4,29,0.00
2013-10-13,69.8,58.9,51.1,54.9,48.7,40.4,94,72,36,30.05,29.90,12,2,18,0.00
2013-10-14,76.4,62.0,50.7,53.5,46.2,40.6,92,60,29,30.10,29.98,10,1,12,0.00
2013-10-15,79.9,64.3,51.6,53.3,41.5,34.1,84,48,20,30.02,29.93,7,1,12,0.00
2013-10-16,82.2,66.2,53.4,53.4,42.0,35.2,84,46,19,30.07,29.97,8,1,12,0.00
2013-10-17,81.0,64.7,53.4,51.8,43.3,33.4,82,50,19,30.06,29.94,8,2,14,0.00
2013-10-18,70.4,57.4,50.0,53.7,49.9,47.5,93,78,53,30.04,29.97,9,3,13,0.00
2013-10-19,76.2,58.4,48.6,54.9,49.6,46.7,94,76,38,30.06,29.97,10,2,16,0.00
2013-10-20,65.9,54.4,47.6,54.0,49.3,45.8,95,84,63,30.01,29.90,12,3,18,0.01
2013-10-21,63.1,53.2,49.7,52.6,49.4,47.8,95,88,64,30.00,29.90,10,4,15,0.00
2013-10-22,65.0,53.4,49.4,55.7,50.2,47.5,97,89,67,30.01,29.91,12,2,17,0.00
2013-10-23,63.8,52.7,48.8,53.8,49.6,47.4,96,90,66,29.98,29.90,13,3,20,0.00
2013-10-24,59.2,53.3,50.4,50.7,49.4,48.2,93,87,73,30.10,29.97,11,3,15,0.00
2013-10-25,67.3,57.0,49.7,53.5,50.6,46.7,92,80,60,30.16,30.06,7,2,12,0.00
2013-10-26,71.4,57.7,49.9,55.9,50.6,46.1,95,79,42,30.13,30.00,11,2,14,0.00
2013-10-27,57.1,53.2,49.6,51.8,49.7,47.8,95,88,76,30.02,29.66,26,8,37,0.00
2013-10-28,58.8,54.8,51.4,51.7,49.2,46.5,88,82,69,29.83,29.66,21,5,26,0.00
2013-10-29,61.2,56.0,51.9,51.4,49.1,45.8,90,78,59,30.04,29.83,11,2,16,0.00
2013-10-30,66.0,55.5,49.1,53.6,48.4,42.8,93,78,56,30.14,30.03,9,1,14,0.00
2013-10-31,71.4,58.2,48.5,53.1,48.0,43.2,92,71,39,30.16,30.05,8,1,12,0.00
2013-11-1,73.3,60.7,50.7,52.5,48.0,45.0,91,65,37,30.12,29.99,7,1,10,0.00
2013-11-2,63.4,55.9,50.0,54.7,49.8,46.3,94,80,65,30.00,29.88,14,3,20,0.00
2013-11-3,62.3,54.5,46.9,48.1,42.6,31.5,87,66,32,30.04,29.90,11,1,15,0.00
2013-11-4,68.4,56.6,45.3,46.0,40.1,29.8,83,57,30,30.05,29.90,11,2,14,0.00
2013-11-5,72.5,60.6,49.1,49.5,41.0,34.1,79,52,27,30.19,30.04,8,1,12,0.00
2013-11-6,70.9,60.7,50.4,47.9,43.6,38.7,79,56,34,30.24,30.13,5,1,9,0.00
2013-11-7,71.3,60.7,53.3,53.5,47.1,42.2,91,63,37,30.15,30.05,12,2,15,0.00
2013-11-8,70.3,57.3,49.9,55.8,50.5,46.1,97,80,51,30.07,29.94,11,2,16,0.00
2013-11-9,72.2,56.9,48.4,53.3,49.8,46.0,96,79,46,30.02,29.95,6,1,12,0.00
2013-11-10,64.5,55.4,51.4,53.4,50.6,48.4,92,84,65,30.10,30.01,10,2,16,0.00
2013-11-11,66.9,57.9,52.4,54.7,51.2,49.1,89,79,62,30.15,30.06,7,1,13,0.00
2013-11-12,68.8,61.3,56.5,54.3,51.6,48.4,89,71,49,30.25,30.13,7,1,10,0.00
2013-11-13,73.8,57.9,51.8,57.9,52.9,49.5,95,85,55,30.23,30.08,13,3,18,0.00
2013-11-14,60.2,54.6,52.2,54.2,50.9,45.4,97,88,69,30.10,29.86,16,4,21,0.00
2013-11-15,62.3,54.9,49.4,50.0,47.1,43.4,92,76,53,29.87,29.71,18,3,25,0.00
2013-11-16,63.0,53.9,47.2,51.5,48.0,43.3,92,81,55,29.91,29.75,13,3,20,0.00
2013-11-17,60.2,53.8,50.1,50.8,48.2,45.4,93,82,64,30.07,29.90,12,3,17,0.00
2013-11-18,58.7,53.3,47.8,50.1,48.2,45.3,93,83,66,30.14,30.06,11,2,16,0.00
2013-11-19,59.9,56.5,53.9,56.4,52.8,48.3,96,88,80,30.08,29.92,8,2,12,0.35
2013-11-20,59.7,56.1,52.0,58.5,54.6,49.0,98,95,87,29.92,29.82,9,1,16,0.58
2013-11-21,62.5,56.8,51.6,50.5,38.0,24.9,93,56,24,29.96,29.88,11,3,17,0.00
2013-11-22,71.2,63.0,56.7,37.5,21.0,13.5,39,21,12,30.00,29.88,14,3,23,0.00
2013-11-23,67.7,58.8,52.2,50.9,36.5,23.8,85,47,22,30.08,29.94,10,2,16,0.00
2013-11-24,65.9,54.1,46.5,49.8,45.4,42.6,92,74,46,30.23,30.07,6,0,7,0.00
2013-11-25,64.2,54.3,45.3,48.5,44.9,42.5,92,72,48,30.30,30.23,5,0,7,0.00
2013-11-26,63.1,55.2,49.4,47.8,44.7,41.5,84,69,47,30.24,30.01,4,0,7,0.00
2013-11-27,64.5,55.8,47.8,48.9,46.4,43.7,88,72,51,30.01,29.82,5,0,8,0.00
2013-11-28,67.8,56.9,49.5,49.8,46.0,42.8,90,69,42,30.05,29.85,9,0,12,0.00
2013-11-29,68.8,55.7,47.6,52.1,47.5,43.4,91,76,43,30.19,30.06,12,1,15,0.00
2013-11-30,66.9,53.6,47.3,53.2,48.2,45.7,96,83,49,30.26,30.17,5,0,7,0.00
2013-12-1,69.1,56.1,47.0,52.6,47.8,43.6,95,76,43,30.32,30.19,5,0,8,0.01
2013-12-2,60.7,53.7,47.2,54.2,50.5,45.6,96,89,72,30.21,29.95,17,4,22,0.01
2013-12-3,55.6,51.7,47.9,54.2,39.1,29.0,95,63,44,29.94,29.83,17,5,24,0.00
2013-12-4,55.1,46.6,40.5,36.2,28.8,21.9,72,51,32,30.06,29.92,8,1,12,0.00
2013-12-5,53.0,44.3,37.1,35.2,28.0,18.0,76,55,25,30.15,30.06,6,1,12,0.00
2013-12-6,52.6,45.7,37.5,49.3,38.5,30.3,92,77,43,30.18,29.90,19,3,29,0.36
2013-12-7,48.8,44.9,40.8,46.1,31.8,24.7,92,61,40,30.23,29.91,13,4,20,0.02
2013-12-8,45.5,41.4,38.1,33.2,25.4,18.5,74,54,35,30.30,30.21,11,2,14,0.00
2013-12-9,52.1,43.0,33.4,33.5,22.2,13.4,69,46,23,30.40,30.29,9,2,15,0.00
2013-12-10,53.6,45.5,37.1,35.8,31.6,26.1,80,59,35,30.38,30.18,7,1,9,0.00
2013-12-11,57.8,48.3,39.7,37.1,33.2,27.3,84,58,32,30.22,30.15,6,1,9,0.00
2013-12-12,60.3,49.1,40.2,45.3,38.8,34.8,88,69,41,30.24,30.14,6,1,10,0.00
2013-12-13,61.3,50.1,43.0,46.6,43.4,38.2,94,79,43,30.32,30.21,6,1,9,0.00
2013-12-14,62.7,51.1,41.8,45.4,39.9,35.9,94,69,37,30.37,30.28,5,1,10,0.01
2013-12-15,61.9,51.4,42.0,45.6,40.2,37.8,88,67,44,30.34,30.21,5,0,7,0.00
2013-12-16,68.9,57.4,45.2,44.8,39.6,34.3,82,54,30,30.22,30.09,4,1,7,0.00
2013-12-17,64.1,55.1,48.5,47.4,42.6,40.0,77,63,49,30.15,30.00,5,0,6,0.00
2013-12-18,57.7,50.9,45.4,48.5,45.0,40.3,87,80,65,30.01,29.74,12,3,18,0.00
2013-12-19,58.1,52.4,46.3,45.6,36.9,19.0,83,59,25,29.92,29.71,18,3,23,0.00
2013-12-20,62.7,51.1,41.1,46.4,34.9,24.3,85,56,28,30.00,29.90,8,1,12,0.00
2013-12-21,62.2,52.0,44.9,51.0,46.3,41.8,90,81,66,30.07,29.95,8,1,12,0.00
2013-12-22,67.4,54.2,45.2,51.3,43.7,39.6,96,71,38,30.26,30.06,3,0,5,0.00
2013-12-23,63.6,53.5,45.1,45.3,42.4,40.8,86,68,46,30.37,30.25,4,0,7,0.00
2013-12-24,69.8,54.9,46.1,48.5,43.9,40.8,90,68,39,30.32,30.18,3,0,6,0.00
2013-12-25,66.2,53.9,44.3,45.5,42.2,39.7,84,66,42,30.26,30.16,5,0,8,0.00
2013-12-26,67.3,53.4,44.1,47.1,41.5,39.5,88,66,38,30.23,30.14,5,0,7,0.00
2013-12-27,61.2,51.6,44.5,45.7,40.8,38.3,87,68,49,30.21,30.10,6,0,10,0.00
2013-12-28,65.6,52.4,42.3,43.6,39.5,34.3,87,64,34,30.14,30.01,5,0,7,0.00
2013-12-29,68.1,54.3,42.8,38.7,32.4,21.3,78,49,18,30.15,30.07,7,1,12,0.00
2013-12-30,62.9,51.9,43.5,49.0,41.5,36.6,89,69,40,30.24,30.15,9,1,13,0.00
2013-12-31,60.6,50.4,44.0,47.0,43.4,38.2,93,78,45,30.26,30.14,5,0,8,0.00
2014-1-1,63.8,51.3,42.3,47.7,43.0,38.5,92,75,40,30.20,30.10,4,0,5,0.00
2014-1-2,65.2,54.2,44.4,45.7,40.2,36.8,83,62,36,30.16,30.03,3,0,6,0.00